DW2199 Weather Reports


Display with metric or nautical units.
time (UTC)temp
F
wind
direction
speed
MPH
gust
MPH
rain 1hr
in
rain 24hr
in
rain mn
in
humidity
%
barometer
mb
20260506044528 58 353 0.0 0.0 0.00 0.00 0.00 89 1008.0
20260506043020 58 352 0.0 1.0 0.00 0.00 0.00 88 1008.1
20260506041506 58 352 0.0 1.0 0.00 0.00 0.00 87 1008.2
20260506040005 59 352 0.0 0.0 0.00 0.00 0.00 84 1007.6
20260506034504 60 352 0.0 1.0 0.00 0.00 0.00 82 1007.6
20260506033004 60 243 0.0 1.0 0.00 0.00 0.00 81 1007.2
20260506031506 60 188 0.0 2.0 0.00 0.00 0.00 81 1007.5
20260506030002 59 205 0.0 5.0 0.00 0.00 0.00 85 1007.1
20260506024600 58 169 0.0 2.0 0.00 0.00 0.00 92 1007.3
20260506023059 58 169 0.0 0.0 0.00 0.00 0.00 92 1006.7
20260506021538 58 169 0.0 0.0 0.00 0.00 0.00 91 1006.5
20260506020036 58 169 0.0 1.0 0.00 0.00 0.00 89 1006.3
20260506014525 58 169 0.0 0.0 0.00 0.00 0.00 91 1006.3
20260506013024 58 169 0.0 0.0 0.00 0.00 0.00 91 1005.9
20260506011531 58 169 0.0 1.0 0.00 0.00 0.00 91 1006.0
20260506010020 58 169 0.0 0.0 0.00 0.00 0.00 91 1005.8
20260506004533 58 169 0.0 0.0 0.00 0.00 0.00 90 1005.4
20260506003022 59 169 0.0 1.0 0.00 0.00 0.00 89 1005.2
20260506001515 60 169 0.0 0.0 0.00 0.00 0.00 88 1005.0
20260506000017 61 169 0.0 0.0 0.00 0.00 0.00 86 1005.1
20260505234608 62 169 0.0 0.0 0.00 0.00 0.00 85 1005.1
20260505233120 62 169 0.0 0.0 0.00 0.00 0.00 83 1004.8
20260505231556 62 169 0.0 0.0 0.00 0.00 0.00 80 1005.0
20260505230056 63 167 0.0 3.0 0.00 0.00 0.00 80 1004.5
20260505224556 62 191 0.0 1.0 0.00 0.00 0.00 81 1004.8
20260505223053 62 191 0.0 3.0 0.00 0.00 0.00 78 1005.0
20260505221600 65 187 0.0 2.0 0.00 0.00 0.00 79 1004.4
20260505220049 65 196 0.0 3.0 0.00 0.00 0.00 75 1004.1
20260505214549 64 360 0.0 7.0 0.00 0.00 0.00 78 1004.3
20260505213044 64 354 1.0 9.0 0.00 0.00 0.00 75 1004.5
20260505211542 63 167 2.0 7.0 0.00 0.00 0.00 79 1004.3
20260505210036 65 342 3.0 11.0 0.00 0.00 0.00 77 1004.9
20260505204537 63 169 0.0 3.0 0.00 0.00 0.00 88 1003.8
20260505203044 64 200 0.0 2.0 0.00 0.00 0.00 84 1002.9
20260505201536 64 181 0.0 1.0 0.00 0.00 0.00 89 1002.8
20260505200035 64 180 0.0 2.0 0.00 0.00 0.00 85 1003.7
20260505194534 64 186 0.0 6.0 0.00 0.00 0.00 83 1004.6
20260505193020 65 160 0.0 2.0 0.00 0.00 0.00 81 1003.4
20260505191518 67 162 0.0 1.0 0.00 0.00 0.00 79 1003.2
20260505190023 70 168 0.0 3.0 0.00 0.00 0.00 65 1002.9
20260505184522 73 203 0.0 9.0 0.00 0.00 0.00 59 1001.5
20260505183015 77 169 0.0 7.0 0.00 0.00 0.00 46 1000.9
20260505181512 78 201 1.0 7.0 0.00 0.00 0.00 43 1000.9
20260505180010 79 191 0.0 6.0 0.00 0.00 0.00 43 1001.1
20260505174510 78 177 2.0 6.0 0.00 0.00 0.00 43 1001.2
20260505173059 79 167 2.0 8.0 0.00 0.00 0.00 44 1001.4
20260505171554 78 6 1.0 5.0 0.00 0.00 0.00 45 1001.5
20260505170051 79 6 2.0 8.0 0.00 0.00 0.00 43 1001.8
20260505164549 79 1 1.0 7.0 0.00 0.00 0.00 44 1002.1
20260505163046 80 6 1.0 8.0 0.00 0.00 0.00 43 1002.4
20260505161544 79 217 0.0 5.0 0.00 0.00 0.00 45 1002.8
20260505153019 74 166 1.0 7.0 0.00 0.00 0.00 49 1003.6
20260505151509 73 229 1.0 7.0 0.00 0.00 0.00 52 1004.1
20260505124519 61 195 0.0 3.0 0.00 0.00 0.00 66 1005.3
20260505123019 60 333 0.0 6.0 0.00 0.00 0.00 66 1005.3
20260505121518 59 204 0.0 3.0 0.00 0.00 0.00 68 1005.2
20260505120032 58 172 0.0 2.0 0.00 0.00 0.00 67 1005.4
20260505114517 57 207 0.0 4.0 0.00 0.00 0.00 68 1005.4
20260505113016 55 190 0.0 2.0 0.00 0.00 0.00 73 1005.5
20260505111524 54 195 0.0 1.0 0.00 0.00 0.00 74 1005.4
20260505110106 55 193 0.0 0.0 0.00 0.00 0.00 73 1005.5
20260505101539 54 207 0.0 0.0 0.00 0.00 0.00 76 1005.4
20260505100031 54 207 0.0 1.0 0.00 0.00 0.00 72 1005.0
20260505094527 55 200 0.0 0.0 0.00 0.00 0.00 72 1005.1
20260505093027 55 200 0.0 1.0 0.00 0.00 0.00 71 1004.9
20260505091530 55 197 0.0 1.0 0.00 0.00 0.00 69 1005.1
20260505090026 55 190 1.0 4.0 0.00 0.00 0.00 70 1005.0
20260505084541 53 205 0.0 1.0 0.00 0.00 0.00 73 1005.1
20260505083042 53 194 0.0 1.0 0.00 0.00 0.00 77 1005.3
20260505081527 52 194 0.0 1.0 0.00 0.00 0.00 76 1005.4
20260505080023 50 190 0.0 5.0 0.00 0.00 0.00 81 1005.3
20260505074512 48 222 0.0 0.0 0.00 0.00 0.00 87 1005.3
20260505073023 48 224 0.0 0.0 0.00 0.00 0.00 87 1005.2
20260505071512 47 224 0.0 0.0 0.00 0.00 0.00 88 1005.3
20260505070010 48 222 0.0 0.0 0.00 0.00 0.00 87 1005.2
20260505064509 48 222 0.0 0.0 0.00 0.00 0.00 86 1005.4
20260505063009 48 224 0.0 0.0 0.00 0.00 0.00 86 1005.4
20260505061510 48 224 0.0 0.0 0.00 0.00 0.00 86 1005.3
20260505060059 48 224 0.0 0.0 0.00 0.00 0.00 86 1005.5
20260505054552 48 224 0.0 0.0 0.00 0.00 0.00 86 1005.4
20260505053039 48 224 0.0 0.0 0.00 0.00 0.00 87 1005.5
20260505051538 48 224 0.0 0.0 0.00 0.00 0.00 86 1005.5